Regional Weather Roundup
Issued by NWS Columbia, SC

Home | Current Version | Previous Version | Text Only | Print | Product List | Glossary On
Versions: 1 2 3 4 5 6 7 8 9 10 11 12 13 14 15 16 17 18 19 20 21 22 23 24 25 26 27 28 29 30 31 32 33 34 35 36 37 38 39 40 41 42 43 44 45 46 47 48 49
000
ASUS42 KCAE 212210
RWRCAE
REGIONAL WEATHER ROUNDUP
NATIONAL WEATHER SERVICE COLUMBIA SC
600 PM EDT TUE OCT 21 2014

NOTE: "FAIR" INDICATES FEW OR NO CLOUDS BELOW 12,000 FEET WITH NO
SIGNIFICANT WEATHER AND/OR OBSTRUCTIONS TO VISIBILITY.

NOT ALL STATIONS ARE QUALITY CONTROLLED BY THE NATIONAL
WEATHER SERVICE. USE DATA WITH CAUTION...ESPECIALLY
DEWPOINT OBSERVATIONS.

SCZ001>056-GAZ040-063>065-077-212300-
...UPSTATE SOUTH CAROLINA...

CITY           SKY/WX    TMP DP  RH WIND       PRES   REMARKS
ANDERSON       CLEAR     71  46  40 W13       29.89S
LIBERTY        FAIR      72  46  40 MISG      29.89
SPARTANBURG    FAIR      72  43  35 N9        29.89R
CLEMSON        CLEAR     72  45  37 W10G20    29.90S
GREENVILLE     MOCLDY    71  46  40 NW7       29.90R
GREENWOOD      CLEAR     72  50  45 W5        29.90R
GREER          MOCLDY    69  45  41 N8        29.88R
ROCK HILL      CLEAR     71  43  36 NW7       29.88S
LAURENS        FAIR      72  36  26 W5        29.90R


...CENTRAL SOUTH CAROLINA...

CITY           SKY/WX    TMP DP  RH WIND       PRES   REMARKS
COLUMBIA APT   PTCLDY    76  48  37 W8G22     29.86R
COLUMBIA OWENS CLEAR     77  47  34 W10       29.87R
DARLINGTON     CLEAR     73  46  38 W7        29.86S
FLORENCE       CLEAR     75  47  36 W7        29.85R
MCENTIRE ANGB  PTCLDY    75  47  37 CALM      29.86S
ORANGEBURG     CLEAR     77  43  29 W7        29.87R
SUMTER SHAW    CLEAR     75  49  40 W5        29.85R
NEWBERRY       FAIR      72  50  46 NW8       29.90S
AIKEN          FAIR      73  54  49 W12       29.91S
BARNWELL       FAIR      77  46  33 W3        29.88S
MANNING        FAIR      77  52  41 CALM      29.86S
CAMDEN         FAIR      73  48  40 W7        29.87R
LANCASTER      FAIR      72  48  43 CALM      29.87R
WINNSBORO      FAIR      72  48  43 W5        29.87R


...EASTERN AND COASTAL SOUTH CAROLINA...

CITY           SKY/WX    TMP DP  RH WIND       PRES   REMARKS
MYRTLE BEACH   PTCLDY    75  59  57 SW12      29.85S
N MYRTLE BCH   MOCLDY    72  59  63 S15       29.85R
CONWAY         FAIR      70  57  64 CALM      29.85S
MARION         FAIR      73  46  38 SW3       29.85S
HARTSVILLE     FAIR      73  23  15 W3        29.87R
FLORENCE       CLEAR     75  47  36 W7        29.85R
DARLINGTON     CLEAR     73  46  38 W7        29.86S
CHARLESTON APT PTCLDY    77  52  41 W6        29.87S
MOUNT PLEASANT FAIR      77  55  47 W5        29.87S
WALTERBORO     CLEAR     77  45  31 SW3       29.88S
BEAUFORT       CLEAR     76  55  48 SW7       29.88S


...EASTERN GEORGIA...

CITY           SKY/WX    TMP DP  RH WIND       PRES   REMARKS
AUGUSTA BUSH F CLEAR     77  50  38 W13G21    29.88S
AUGUSTA DANIEL CLEAR     77  51  40 VRB5      29.89S
THOMSON        CLEAR     76  60  57 W7        29.94S
WASHINGTON     FAIR      77  52  41 W10G17    29.91R
CLAXTON        FAIR      79  54  41 W5        29.89S
SYLVANIA       CLEAR     81  52  36 NW6       29.89R
STATESBORO     CLEAR     77  49  37 W6        29.88S
SAVANNAH       CLEAR     78  53  41 W6        29.89S


...SOUTHERN NORTH CAROLINA...

CITY           SKY/WX    TMP DP  RH WIND       PRES   REMARKS
CHARLOTTE      PTCLDY    69  42  37 N9        29.88R
MONROE         CLEAR     72  44  36 NW7       29.86R
WADESBORO      MOCLDY   N/A N/A N/A NW3       29.85S
ROCKINGHAM     PTCLDY    70  50  48 W3        29.85S
RUTHERFORDTON  CLEAR     66  41  39 NW9G16    29.92R
ASHEVILLE      CLEAR     61  39  44 N10G20    29.96R

$$



USA.gov is the U.S. government's official web portal to all federal, state and local government web resources and services.